Wind_Speed
29 29 29 29 30 30 28 25 24 23 23 23 22 21 20 20 19 19 18 17 17 17 16 16 16 15 15 14 13 13 13 12 11 11 11 10 9 9 8 8 8 8 7 7 6 6 6 6 6
30 31 31 32 32 31 28 25 25 25 26 25 25 23 22 22 21 20 19 18 18 18 18 18 18 18 17 16 15 15 15 14 14 13 13 12 11 11 10 10 10 10 9 8 8 7 7 7 7
31 32 33 34 33 31 29 26 27 28 28 28 27 26 24 23 23 22 21 20 20 20 19 19 19 20 19 18 17 17 17 17 16 15 14 14 13 13 12 12 12 11 11 10 10 9 9 9 9
32 33 34 35 32 31 30 29 29 30 30 30 30 29 27 25 25 25 24 23 23 22 22 22 21 21 21 21 20 20 20 19 18 17 16 16 15 15 14 14 13 13 13 12 12 12 11 11 11
32 34 35 35 33 32 32 31 31 32 32 31 31 31 29 28 28 27 26 25 25 25 25 24 24 23 23 23 22 21 21 21 20 20 19 18 17 17 16 16 15 15 15 14 14 14 13 13 13
33 35 36 35 33 33 33 33 33 34 34 34 34 33 32 30 30 29 29 28 27 27 27 26 26 25 25 25 25 24 23 23 23 22 22 21 20 19 18 18 17 17 17 16 16 15 15 15 15
34 36 37 36 34 34 34 34 34 35 36 36 36 36 34 33 32 31 31 30 29 28 28 29 28 28 27 26 26 25 25 24 24 24 23 23 23 22 20 20 19 19 19 18 18 18 17 17 17
35 37 38 37 36 35 35 36 36 37 37 38 39 38 36 35 35 34 33 32 32 31 30 30 30 29 28 28 27 27 27 26 25 25 24 24 24 24 23 22 22 21 21 21 21 20 20 19 19
36 38 39 38 37 36 37 38 38 39 39 40 40 40 38 38 37 36 35 34 34 34 33 31 31 31 30 29 28 28 28 27 27 27 26 25 25 25 25 25 24 24 24 24 24 23 22 22 21
37 39 39 39 39 38 38 39 39 40 40 41 41 41 40 39 39 38 37 37 36 35 35 34 33 32 32 31 30 30 29 29 29 28 28 27 26 26 27 27 27 26 26 25 25 25 25 24 23
38 39 39 40 40 40 40 40 40 41 41 41 42 42 41 40 40 40 40 39 38 38 37 36 36 35 34 33 33 32 31 30 30 29 29 29 28 28 27 27 28 28 26 26 26 26 26 26 25
40 40 40 40 40 40 41 41 41 42 42 42 43 43 43 42 41 40 41 41 40 40 39 38 38 37 36 35 34 33 32 31 31 31 30 30 30 29 28 28 28 29 28 28 27 27 26 27 27
40 41 41 41 42 42 42 42 42 42 42 43 44 44 44 43 42 41 42 42 43 42 41 40 40 39 38 36 36 35 34 33 32 32 31 31 31 30 29 29 28 29 30 30 29 28 28 28 28
40 41 41 42 42 43 44 43 42 40 41 43 44 44 44 44 43 41 41 42 43 43 42 42 42 41 40 38 37 37 36 35 34 34 33 32 31 32 31 30 30 30 30 30 30 30 30 30 30
40 41 41 42 43 43 44 43 41 41 42 43 43 44 44 44 43 42 42 42 43 43 43 43 43 41 40 40 39 38 37 37 35 35 35 34 33 33 33 33 32 32 32 31 31 32 32 31 31
40 41 41 40 41 43 44 43 41 42 42 42 43 43 43 44 44 43 43 43 44 44 44 43 43 42 42 41 41 40 39 39 37 36 36 36 35 35 35 35 34 34 34 33 33 33 33 32 33
41 41 40 40 41 43 45 44 42 43 43 43 44 44 43 44 45 44 44 45 45 45 45 44 43 43 42 42 42 42 41 41 40 38 38 38 37 37 37 37 36 35 35 35 34 34 34 34 34
39 40 40 40 42 44 45 45 44 44 45 44 45 45 45 45 45 45 46 46 47 47 46 45 44 44 44 43 43 43 42 42 42 41 39 39 38 38 38 37 37 36 37 36 35 35 34 34 34
37 38 39 40 42 44 45 45 44 45 45 45 46 46 45 45 45 45 46 46 46 46 46 47 45 45 45 44 44 44 44 43 43 43 42 40 39 40 40 39 39 38 38 37 36 35 34 34 34
35 36 37 38 40 43 44 45 43 44 45 44 44 45 44 45 46 45 45 45 45 46 46 46 45 45 45 45 44 43 44 44 45 45 44 43 41 41 41 40 39 38 38 36 36 36 36 35 35
34 35 36 38 39 41 43 44 41 42 42 43 43 44 43 44 44 44 45 46 44 45 45 45 44 45 45 45 45 44 43 43 44 44 45 46 45 43 42 41 41 40 38 38 37 37 37 36 36
33 34 35 36 37 38 39 43 39 39 40 40 41 43 42 43 42 43 44 46 45 44 44 44 43 44 44 45 44 44 43 43 43 44 45 45 46 45 43 42 41 40 39 39 39 39 38 38 37
32 32 33 34 36 37 36 40 37 38 38 38 40 41 42 42 41 42 43 43 44 44 45 45 44 44 44 44 43 43 43 42 42 43 44 44 44 43 44 43 43 42 41 41 40 39 39 39 38
31 31 31 33 34 36 34 36 35 34 35 36 38 39 40 42 41 40 41 42 43 44 45 45 46 44 43 43 43 44 44 43 42 42 42 43 44 44 44 44 43 43 42 42 41 40 40 40 39
29 30 31 31 31 32 31 33 33 32 33 34 35 36 38 40 40 40 40 40 41 42 43 43 44 43 43 44 44 45 44 43 42 42 42 43 45 45 45 45 44 43 43 43 42 41 41 40 40
28 28 29 31 32 30 30 31 30 31 32 32 33 34 35 37 37 38 39 39 40 41 42 42 41 42 43 43 44 44 43 43 42 42 42 43 45 46 45 45 44 44 44 44 43 42 42 42 42
26 26 27 29 30 30 29 28 28 28 29 30 31 32 33 35 35 36 37 39 40 40 41 41 41 41 41 41 42 42 41 41 41 42 43 44 45 46 46 46 44 44 44 45 44 44 43 43 43
26 25 25 27 29 29 27 26 25 26 26 26 27 29 31 33 33 34 35 37 38 40 40 39 40 40 40 41 41 41 40 40 41 41 42 43 44 45 45 45 44 45 45 45 45 45 44 44 44
24 24 25 26 27 27 27 25 24 24 23 24 24 26 28 31 31 32 34 35 36 38 39 38 38 39 39 40 40 41 40 41 41 41 42 42 41 42 43 44 44 45 45 46 46 46 46 46 45
24 23 23 24 25 26 27 25 23 22 23 23 23 23 25 27 28 30 32 33 35 36 37 38 38 38 38 39 38 38 40 41 41 41 41 41 42 42 42 43 44 45 45 46 46 47 47 46 46
Wind_Direction
246 247 247 249 250 250 250 251 251 251 250 250 248 247 248 250 252 252 252 251 253 253 251 249 249 251 251 250 249 248 248 248 248 248 249 251 252 252 252 251 250 251 251 252 255 259 263 267 269
248 248 248 249 250 251 251 251 251 250 250 249 249 249 248 249 250 252 252 251 252 253 253 253 251 251 251 251 251 250 249 249 249 250 250 251 253 254 254 253 251 250 250 251 255 261 265 266 268
248 248 249 250 250 252 252 250 249 249 250 250 250 250 250 250 250 251 251 252 252 253 254 255 254 254 253 253 253 253 252 251 251 252 251 251 253 254 254 254 253 251 250 251 254 259 264 267 270
249 250 250 250 252 253 252 250 248 249 249 250 250 250 250 250 250 251 252 251 252 253 255 256 256 257 256 256 255 255 255 253 252 252 252 253 254 254 255 255 254 252 250 251 254 258 263 267 271
249 251 252 252 254 254 252 251 250 249 250 251 251 251 250 249 250 251 252 252 252 253 254 255 256 257 257 257 256 255 255 254 253 252 252 252 255 256 256 255 253 251 250 252 254 258 262 265 269
251 252 253 253 255 254 252 251 250 250 251 252 252 252 251 250 251 252 252 252 252 252 253 254 255 256 255 255 256 256 255 254 254 253 252 252 253 254 255 254 252 251 252 252 255 258 262 266 268
254 253 254 254 255 254 253 252 252 251 252 252 252 252 252 251 252 252 253 253 253 254 254 253 254 254 254 255 257 257 256 256 256 255 254 252 251 252 252 252 252 252 252 253 256 258 262 266 269
255 255 254 254 255 254 254 254 253 253 253 253 253 253 252 251 251 252 252 253 253 253 253 253 252 253 254 254 255 256 256 256 256 256 255 253 252 251 251 252 253 254 255 255 256 258 262 265 268
256 256 256 255 256 255 255 255 255 254 253 253 253 253 252 250 249 251 252 252 251 251 252 252 251 252 253 253 255 256 256 255 257 256 254 252 252 253 253 253 254 254 255 256 258 259 261 264 267
257 258 257 256 256 256 256 256 256 255 254 253 252 253 251 250 249 249 251 251 251 250 251 251 251 251 252 252 254 255 255 255 256 256 253 251 252 253 254 255 255 254 255 257 258 260 261 263 266
257 258 258 256 257 257 257 256 256 255 254 253 252 252 252 251 250 250 250 250 249 249 250 251 251 251 250 251 253 254 255 254 255 255 253 252 253 254 254 254 254 253 254 256 258 260 262 264 266
259 259 259 257 258 259 258 257 257 257 255 253 253 252 251 250 249 249 249 249 249 249 249 250 250 251 251 251 251 253 253 254 254 254 253 253 253 254 252 253 254 254 254 256 258 260 262 264 266
259 259 259 259 259 259 259 259 259 258 256 254 253 252 251 249 248 248 249 249 249 249 249 249 250 251 252 252 250 251 251 252 253 253 252 252 251 251 252 252 253 256 256 257 258 259 262 264 266
259 259 259 259 260 260 260 259 259 258 256 254 252 251 250 249 247 248 249 249 249 249 249 249 249 249 250 251 250 250 250 250 251 252 252 251 250 250 251 253 254 256 258 258 258 259 262 264 266
260 259 260 260 260 260 260 258 260 258 256 255 253 251 249 249 248 247 247 248 248 248 249 249 248 248 249 250 250 249 249 249 250 252 253 251 250 250 251 253 255 257 258 259 259 260 261 264 266
262 262 261 260 261 260 260 260 259 258 257 255 254 252 250 249 248 247 247 248 248 248 249 249 248 248 249 250 250 249 249 249 250 251 252 250 249 250 252 253 255 257 258 259 260 260 262 263 265
264 264 263 262 261 260 260 260 258 258 257 257 255 252 250 249 248 247 247 247 248 248 249 250 249 248 248 249 250 250 249 249 250 251 251 250 249 250 251 253 255 257 258 259 260 260 262 263 265
266 265 263 263 262 261 261 261 259 258 258 257 255 252 250 249 248 248 248 247 247 247 248 248 248 248 247 249 250 250 250 250 250 249 249 249 249 250 252 254 256 258 259 258 259 260 262 264 265
269 267 265 264 264 263 261 260 259 258 258 256 255 252 250 250 248 249 248 248 247 247 248 249 249 248 248 248 250 250 250 250 250 248 247 248 250 251 252 254 256 257 258 258 259 261 263 265 267
270 269 268 267 266 264 262 260 258 258 258 257 254 251 250 249 248 248 248 248 247 246 247 249 249 248 248 248 249 250 250 250 250 248 247 247 249 250 251 253 254 256 257 258 259 261 264 266 268
273 273 272 271 269 267 265 261 259 258 258 257 253 250 249 248 247 246 245 246 246 246 246 248 249 247 247 247 247 248 249 249 249 248 248 247 247 249 250 251 253 255 256 258 260 262 264 266 268
275 274 274 273 271 270 268 266 260 258 259 257 253 249 248 247 246 247 246 246 246 245 245 247 248 247 246 247 247 248 249 249 249 248 247 246 246 247 249 251 253 255 256 258 260 262 264 266 268
277 276 275 275 273 272 270 269 263 260 260 257 252 250 248 247 246 247 246 246 245 245 245 247 248 247 246 247 247 248 248 249 249 248 247 246 247 247 249 251 253 254 256 257 260 262 263 265 268
278 278 278 277 276 274 273 271 268 264 262 258 252 250 248 246 245 245 245 245 244 244 244 246 247 246 246 247 247 247 247 247 247 247 248 248 248 249 249 251 252 253 255 258 260 262 263 266 268
278 280 282 282 279 278 275 273 272 268 266 261 255 252 249 246 245 245 245 244 244 244 243 245 246 245 245 246 247 247 248 247 247 247 247 247 248 249 249 250 253 254 255 257 259 261 263 266 269
280 281 282 283 283 281 277 276 273 271 267 263 260 256 251 248 245 244 244 244 245 244 244 245 245 244 245 246 246 247 247 247 247 248 247 247 248 248 249 250 252 253 255 257 259 262 264 266 269
282 282 283 284 284 282 280 279 275 272 268 263 260 257 254 250 246 245 244 244 245 245 244 245 244 244 245 246 245 245 246 246 247 248 248 248 247 248 249 250 252 254 256 258 260 262 265 267 269
281 283 284 284 285 284 281 281 282 278 269 263 259 257 253 249 247 246 246 246 245 245 245 246 245 244 245 246 245 245 246 247 247 247 248 248 248 249 251 251 253 254 257 259 261 263 265 267 269
279 281 282 283 281 283 284 283 284 281 272 265 261 258 255 252 250 248 247 247 246 246 246 246 243 243 243 244 246 246 246 246 247 248 249 249 250 252 252 252 254 255 258 260 262 264 266 268 270
279 279 282 281 279 281 284 285 285 284 276 268 263 261 258 253 251 250 248 248 247 247 247 246 243 242 242 244 246 246 245 245 247 249 250 251 253 254 253 255 255 257 259 261 263 264 266 268 270
Height
5801 5803 5806 5808 5810 5811 5813 5817 5820 5821 5822 5823 5825 5826 5828 5829 5831 5835 5834 5834 5835 5836 5837 5838 5839 5840 5840 5841 5842 5843 5844 5844 5845 5846 5847 5848 5848 5849 5850 5850 5851 5852 5852 5853 5854 5854 5855 5855 5855
5796 5798 5801 5802 5803 5805 5809 5813 5815 5816 5817 5819 5820 5822 5824 5825 5827 5828 5829 5830 5831 5833 5834 5835 5836 5836 5837 5838 5839 5840 5841 5842 5842 5843 5844 5845 5846 5847 5848 5848 5849 5850 5850 5851 5852 5853 5853 5854 5854
5790 5792 5795 5796 5798 5801 5805 5808 5809 5810 5812 5813 5815 5817 5819 5821 5823 5824 5825 5827 5828 5829 5830 5831 5832 5833 5834 5835 5836 5837 5838 5838 5839 5840 5841 5842 5843 5844 5845 5846 5847 5847 5848 5849 5850 5850 5851 5852 5852
5785 5787 5788 5790 5793 5797 5799 5802 5803 5804 5806 5808 5810 5812 5814 5817 5818 5820 5821 5822 5824 5825 5826 5827 5828 5829 5830 5831 5832 5833 5834 5835 5836 5837 5838 5839 5840 5841 5842 5843 5844 5844 5845 5846 5847 5848 5848 5849 5849
5778 5780 5781 5783 5787 5791 5793 5795 5797 5798 5799 5802 5804 5806 5808 5811 5812 5814 5816 5818 5819 5820 5821 5822 5824 5824 5825 5826 5827 5828 5829 5830 5831 5833 5834 5835 5836 5837 5838 5839 5840 5841 5842 5843 5844 5845 5845 5846 5847
5771 5772 5774 5777 5781 5784 5785 5787 5789 5791 5793 5795 5797 5799 5802 5805 5807 5809 5810 5812 5813 5815 5816 5817 5818 5819 5820 5821 5822 5824 5825 5826 5827 5828 5829 5830 5831 5833 5834 5835 5836 5837 5839 5840 5840 5841 5842 5842 5843
5765 5766 5767 5771 5774 5776 5779 5780 5781 5783 5785 5788 5790 5792 5795 5798 5800 5802 5804 5806 5807 5809 5810 5811 5813 5814 5815 5816 5817 5818 5819 5820 5821 5823 5824 5825 5826 5828 5829 5830 5832 5833 5834 5835 5837 5838 5838 5839 5840
5757 5759 5760 5763 5766 5769 5771 5772 5774 5775 5777 5780 5781 5784 5788 5791 5793 5795 5797 5799 5801 5802 5804 5805 5807 5808 5809 5810 5812 5813 5814 5815 5816 5817 5818 5819 5821 5823 5824 5825 5827 5828 5829 5831 5832 5833 5834 5835 5835
5750 5752 5753 5756 5758 5761 5763 5763 5765 5766 5769 5771 5773 5776 5780 5782 5785 5787 5790 5792 5793 5795 5797 5798 5800 5802 5803 5804 5806 5807 5808 5809 5810 5811 5812 5814 5816 5817 5819 5820 5822 5823 5824 5825 5827 5828 5829 5830 5831
5742 5743 5746 5749 5751 5753 5754 5755 5756 5758 5760 5762 5764 5767 5770 5773 5776 5779 5781 5784 5786 5787 5789 5791 5793 5795 5797 5798 5799 5801 5802 5803 5804 5805 5806 5808 5810 5812 5813 5815 5816 5817 5819 5820 5821 5822 5824 5825 5826
5733 5736 5738 5740 5741 5743 5744 5746 5747 5748 5751 5753 5755 5758 5761 5764 5767 5770 5773 5775 5777 5779 5781 5783 5785 5787 5789 5791 5792 5794 5796 5797 5798 5799 5800 5802 5804 5805 5807 5808 5810 5811 5813 5814 5815 5816 5818 5819 5820
5726 5727 5729 5731 5732 5733 5735 5736 5737 5739 5742 5743 5745 5748 5751 5754 5757 5760 5763 5766 5768 5771 5773 5775 5777 5779 5781 5783 5785 5787 5789 5790 5791 5792 5794 5796 5797 5799 5800 5802 5803 5805 5806 5808 5809 5811 5812 5813 5814
5717 5719 5720 5721 5722 5723 5724 5726 5727 5730 5732 5733 5735 5737 5740 5743 5747 5750 5753 5756 5759 5762 5764 5766 5768 5771 5773 5775 5777 5779 5781 5783 5784 5785 5787 5789 5791 5793 5794 5796 5797 5798 5800 5801 5803 5804 5806 5807 5808
5708 5709 5711 5711 5712 5712 5714 5716 5718 5721 5721 5722 5724 5726 5729 5732 5736 5740 5743 5746 5749 5752 5755 5757 5759 5762 5764 5767 5769 5771 5773 5775 5777 5778 5779 5781 5783 5786 5788 5789 5790 5792 5793 5795 5796 5798 5799 5800 5801
5699 5700 5701 5701 5701 5702 5703 5706 5709 5710 5710 5711 5713 5715 5718 5721 5725 5729 5733 5736 5739 5742 5744 5747 5749 5752 5755 5758 5760 5762 5764 5766 5768 5770 5771 5774 5776 5778 5780 5782 5783 5785 5786 5788 5789 5791 5792 5793 5795
5689 5689 5691 5692 5692 5692 5693 5696 5700 5698 5699 5701 5703 5705 5708 5711 5715 5718 5722 5725 5728 5731 5734 5736 5739 5742 5745 5748 5750 5753 5755 5758 5760 5761 5763 5765 5768 5770 5772 5774 5776 5777 5779 5780 5782 5783 5785 5786 5787
5678 5679 5681 5682 5682 5681 5681 5685 5689 5687 5688 5690 5692 5694 5697 5700 5704 5707 5710 5713 5716 5720 5723 5726 5728 5732 5735 5738 5740 5743 5745 5748 5751 5753 5755 5757 5760 5762 5764 5766 5768 5770 5771 5773 5774 5776 5777 5778 5780
5669 5669 5670 5671 5671 5670 5671 5673 5676 5676 5676 5678 5680 5682 5685 5689 5693 5695 5699 5702 5704 5708 5711 5714 5717 5720 5724 5727 5730 5733 5735 5738 5741 5744 5746 5749 5751 5753 5756 5758 5760 5761 5763 5765 5766 5767 5769 5770 5772
5659 5659 5659 5660 5659 5658 5659 5661 5663 5663 5664 5666 5668 5670 5673 5677 5681 5683 5686 5689 5692 5695 5698 5702 5705 5709 5712 5716 5719 5722 5725 5728 5730 5733 5737 5739 5742 5744 5747 5749 5751 5753 5755 5757 5758 5759 5761 5762 5763
5649 5649 5649 5650 5648 5646 5647 5648 5651 5651 5652 5654 5656 5658 5661 5665 5668 5671 5675 5678 5681 5684 5687 5690 5693 5697 5701 5704 5708 5711 5714 5717 5720 5723 5727 5729 5732 5735 5738 5740 5743 5745 5746 5748 5750 5752 5753 5754 5755
5641 5640 5640 5639 5638 5636 5635 5636 5640 5641 5641 5642 5644 5646 5649 5653 5656 5660 5663 5667 5670 5673 5677 5680 5682 5685 5689 5693 5696 5699 5702 5705 5709 5712 5716 5719 5722 5725 5729 5731 5734 5736 5738 5740 5742 5743 5745 5746 5747
5633 5632 5630 5629 5627 5626 5625 5623 5630 5630 5630 5631 5633 5635 5638 5642 5645 5648 5652 5656 5659 5663 5666 5669 5672 5674 5678 5681 5684 5688 5691 5695 5699 5702 5705 5709 5712 5715 5719 5722 5724 5727 5729 5731 5733 5735 5736 5737 5738
5625 5623 5622 5620 5618 5617 5616 5613 5619 5620 5621 5622 5623 5625 5627 5631 5634 5638 5641 5644 5648 5651 5655 5658 5661 5664 5667 5670 5674 5677 5680 5684 5688 5691 5694 5698 5702 5705 5709 5712 5715 5718 5720 5722 5724 5726 5727 5728 5729
5617 5616 5614 5612 5610 5609 5609 5606 5608 5610 5612 5612 5613 5615 5617 5621 5624 5628 5631 5634 5637 5640 5644 5647 5650 5653 5656 5660 5663 5667 5670 5674 5677 5680 5684 5688 5691 5695 5699 5702 5705 5708 5710 5713 5714 5716 5717 5719 5720
5610 5609 5606 5604 5602 5602 5601 5599 5601 5603 5602 5602 5604 5605 5607 5611 5614 5618 5621 5624 5627 5630 5633 5636 5639 5642 5645 5649 5652 5656 5659 5663 5667 5670 5674 5678 5681 5685 5688 5692 5695 5698 5700 5702 5704 5706 5707 5709 5710
5604 5602 5600 5597 5595 5595 5594 5592 5595 5594 5594 5593 5594 5595 5597 5601 5604 5608 5611 5614 5617 5620 5622 5625 5628 5631 5635 5638 5642 5645 5649 5653 5656 5660 5664 5667 5671 5674 5678 5681 5685 5687 5690 5692 5694 5696 5697 5698 5699
5597 5596 5594 5592 5588 5587 5586 5586 5587 5587 5586 5586 5586 5587 5589 5592 5595 5599 5602 5604 5607 5609 5612 5615 5617 5621 5624 5628 5631 5635 5638 5642 5646 5650 5653 5657 5660 5664 5668 5671 5674 5677 5679 5681 5683 5685 5687 5688 5688
5592 5590 5589 5586 5583 5580 5580 5580 5581 5580 5579 5579 5579 5580 5582 5584 5587 5589 5592 5594 5597 5599 5601 5604 5606 5610 5614 5617 5621 5625 5629 5633 5637 5640 5644 5647 5651 5654 5657 5661 5663 5666 5669 5671 5673 5674 5676 5676 5677
5587 5586 5583 5581 5579 5576 5574 5578 5575 5574 5573 5573 5573 5573 5575 5577 5578 5581 5583 5585 5587 5589 5591 5594 5597 5600 5604 5608 5611 5616 5620 5624 5628 5631 5635 5638 5641 5644 5647 5650 5653 5655 5658 5660 5662 5663 5664 5665 5666
5581 5580 5579 5577 5575 5572 5569 5573 5570 5569 5568 5567 5568 5568 5569 5570 5571 5572 5574 5576 5578 5580 5582 5585 5588 5591 5595 5598 5602 5606 5610 5614 5618 5622 5625 5628 5632 5634 5637 5640 5642 5645 5647 5649 5650 5652 5653 5653 5654